Theta_e
328 330 323 327 328 324 321 321 324 325 320 323 328 326 322 319 317 318 318 317 316 317 320 320 318 318 316 316 317 315 316 316 316 317 316 317 316 316 317 317 318 320 318 314 313 316 317 317 319 321 322 323 323 324 326 328 328 328 328 328 328 327 326 326 326 326 326 326 326 326 326 325 326 328 330 330 330 331 331 333 334 334 333 333 332 331
328 328 326 333 331 323 320 320 319 319 319 323 325 321 321 324 319 317 318 317 316 317 322 323 319 318 317 315 316 315 316 316 316 316 316 316 316 316 318 319 319 319 316 316 316 314 315 317 318 319 321 321 322 322 324 325 326 327 327 327 327 326 325 325 325 325 325 325 325 325 325 324 325 327 328 329 329 329 330 332 333 333 332 332 332 331
325 325 329 331 326 320 319 319 319 322 325 328 324 318 321 327 321 317 320 319 317 318 323 325 320 318 317 316 316 315 315 315 314 316 316 317 317 317 317 318 319 319 320 321 321 317 315 316 317 318 320 321 322 322 323 324 325 325 326 326 326 325 325 324 324 324 324 324 324 324 323 323 324 325 326 327 327 328 328 329 331 332 332 332 332 332
322 326 328 324 320 319 318 319 322 323 326 330 327 321 324 328 321 318 321 319 318 318 321 324 321 319 317 316 318 316 314 315 315 316 317 317 318 318 317 318 319 320 322 324 326 323 316 315 317 317 319 320 321 322 323 324 324 324 324 324 324 323 323 322 322 322 322 322 322 322 322 322 323 324 324 325 325 326 326 327 328 330 330 330 331 331
324 325 321 319 321 324 321 320 325 322 319 326 332 330 328 327 320 319 321 321 322 322 321 321 321 328 330 326 328 325 316 315 315 315 317 318 318 319 319 320 321 322 323 325 332 331 319 315 316 317 318 319 320 321 322 322 323 323 323 322 322 321 321 321 320 320 320 320 320 320 320 320 321 321 321 322 322 322 323 324 324 325 326 328 329 330
323 320 319 320 321 327 324 320 328 327 319 320 327 329 328 326 324 327 330 326 324 324 323 319 319 333 341 333 332 332 325 324 322 320 321 319 317 318 320 320 322 324 326 328 333 331 320 315 315 316 317 318 319 320 320 321 321 321 321 321 321 320 320 319 319 319 319 319 318 318 318 318 318 318 318 318 319 319 320 320 320 320 321 323 326 328
321 320 323 327 324 325 325 321 324 327 321 317 321 325 329 330 328 332 333 324 322 324 321 319 319 328 331 322 323 326 325 328 326 324 326 322 319 320 321 322 323 325 327 330 332 327 319 315 314 315 316 317 318 318 319 320 320 320 320 320 320 319 319 319 318 318 318 318 317 317 316 316 316 316 316 316 316 316 317 317 317 317 318 320 324 326
320 322 325 329 328 326 324 323 322 324 324 321 322 327 334 331 326 331 330 322 325 327 325 326 323 323 327 322 319 318 317 320 319 319 322 320 320 323 323 325 325 326 329 333 335 331 321 314 314 315 316 317 317 317 317 318 318 319 319 319 319 319 318 318 318 318 317 317 316 316 315 315 315 315 315 315 314 314 314 314 315 317 318 320 322 324
320 325 327 327 328 328 327 328 327 324 325 325 324 328 334 332 330 335 333 328 329 324 325 330 322 320 329 330 322 317 316 319 320 319 318 317 321 324 326 329 328 329 334 336 339 335 321 313 314 316 316 317 316 316 316 317 317 317 317 318 318 317 318 317 317 317 316 316 315 315 314 314 314 314 314 314 313 313 313 313 314 315 317 319 320 322
320 322 324 326 326 328 328 326 327 327 324 325 325 329 333 333 334 336 331 331 332 323 323 332 325 317 320 325 322 315 316 322 323 321 319 318 322 325 332 338 335 335 338 335 335 328 315 312 315 315 316 316 316 316 316 316 316 316 317 317 317 316 317 317 316 316 316 315 315 314 314 313 314 314 314 314 313 313 312 312 313 314 316 317 319 320
318 316 318 323 323 325 325 321 324 328 324 325 330 334 333 334 339 339 335 334 329 322 325 331 327 316 315 324 326 319 321 325 322 322 322 321 323 327 334 338 337 338 337 333 332 322 311 312 315 315 315 315 315 315 315 315 316 316 316 316 316 316 316 316 316 315 315 315 314 314 314 313 313 313 313 313 312 312 312 312 313 314 315 317 318 318
321 319 318 320 318 321 325 321 322 327 327 329 336 334 326 330 339 338 335 332 323 322 330 332 327 318 313 322 326 324 327 325 321 324 326 324 326 333 337 338 337 337 334 331 332 326 317 316 314 313 314 314 314 315 314 315 315 315 316 315 315 315 315 315 315 315 314 314 314 314 313 313 313 313 313 312 312 311 311 311 312 313 314 315 317 317
324 324 320 317 316 320 326 324 322 326 330 330 329 325 317 321 331 330 330 331 326 325 327 326 325 318 315 319 322 325 328 324 322 325 328 326 327 337 344 340 337 335 332 330 330 328 327 321 312 311 313 313 314 314 314 315 315 315 315 315 315 315 315 315 314 314 314 313 314 313 313 313 312 312 312 312 311 310 310 311 311 312 312 314 315 317
325 325 321 317 317 320 322 323 321 322 327 326 323 322 320 322 326 325 327 327 327 328 325 321 322 322 323 325 323 324 324 325 324 325 330 331 328 337 346 344 338 333 331 329 327 328 328 319 309 309 313 313 313 314 314 315 315 315 315 314 315 315 314 314 314 314 313 313 313 313 313 313 312 311 311 312 312 311 311 311 311 312 313 314 316 317
323 325 323 318 319 321 320 321 322 324 324 323 324 323 321 326 328 327 327 325 326 329 325 320 322 328 327 323 322 324 324 327 327 327 331 333 332 334 340 345 342 334 329 326 325 327 322 313 308 310 312 312 313 313 314 315 314 315 315 314 314 314 314 314 313 313 313 312 312 312 312 311 311 311 311 311 312 311 311 312 312 313 314 316 317 318
317 322 325 319 319 321 320 320 321 323 320 320 326 323 320 325 325 324 328 329 329 327 324 323 326 330 326 320 322 325 325 324 323 326 329 327 329 329 331 339 340 337 332 325 325 329 320 309 308 310 310 311 313 313 313 314 314 314 314 314 314 314 314 313 313 313 312 312 312 311 311 310 310 310 310 311 312 311 312 312 313 314 315 316 318 319
317 321 322 317 317 319 319 321 321 321 319 320 323 322 324 327 323 321 323 323 322 320 320 322 322 323 319 317 320 320 320 320 317 322 326 325 328 327 329 333 334 337 338 329 329 335 324 310 308 310 310 311 312 312 313 313 314 314 314 314 314 313 313 313 313 313 312 312 312 311 311 310 310 310 311 311 311 311 312 312 314 314 315 316 317 318
325 325 322 319 319 318 318 321 323 324 321 321 324 322 323 325 325 327 326 322 320 319 321 320 316 316 315 317 321 319 317 319 319 320 322 325 328 328 331 333 331 334 339 335 331 329 320 310 308 310 310 311 312 312 313 313 313 314 313 314 313 313 313 313 312 312 312 311 311 311 310 310 309 309 310 311 311 311 311 312 313 314 314 315 316 317
323 321 319 318 320 320 319 320 322 322 319 322 326 323 324 327 327 327 325 323 321 319 323 323 317 314 313 315 319 318 317 321 324 323 323 324 325 326 331 334 330 327 333 341 339 333 323 311 308 310 310 311 312 312 312 312 313 313 313 313 313 312 313 312 312 312 311 311 311 310 310 309 309 309 309 311 311 311 311 312 312 313 314 314 314 314
321 317 318 318 318 319 319 320 321 321 320 323 323 320 324 330 329 327 324 322 322 320 320 319 313 313 316 319 317 315 317 319 318 320 324 324 322 323 327 332 333 330 333 341 344 345 333 313 308 312 312 312 312 312 312 312 312 313 313 313 313 312 312 312 312 312 311 311 310 309 309 309 308 308 309 310 311 311 311 311 312 312 313 312 312 313
319 314 316 318 317 319 321 321 320 319 321 323 322 321 323 323 324 326 324 322 324 324 321 317 313 314 320 322 319 317 318 318 318 319 323 325 322 324 327 329 334 337 339 341 342 350 341 315 309 313 313 313 314 312 312 312 312 312 312 313 313 312 312 311 311 311 311 311 310 309 309 308 308 308 308 309 310 310 310 311 312 312 312 312 312 313
316 316 321 322 320 321 324 322 318 318 320 321 320 322 322 320 321 321 320 321 323 326 328 322 314 316 321 320 318 320 320 318 320 319 322 326 324 326 330 330 333 337 345 349 346 352 341 315 308 312 313 313 313 312 312 312 312 312 312 312 312 312 311 311 311 311 310 310 310 309 308 308 308 307 307 308 309 309 309 309 311 312 313 312 312 312
319 323 325 324 322 321 321 320 319 319 319 320 320 320 319 319 321 319 321 323 323 327 331 325 316 316 321 323 322 325 326 324 324 323 325 328 327 329 335 339 340 339 344 345 344 343 325 308 308 312 311 311 312 311 312 312 312 312 312 312 312 311 311 311 311 310 310 310 309 309 309 308 308 307 307 307 308 308 308 309 309 311 312 313 312 311
318 321 320 320 322 322 322 322 321 320 319 320 322 321 320 319 321 324 327 325 324 326 325 321 319 317 320 327 327 325 326 325 325 325 325 328 329 333 340 344 344 344 342 337 334 329 313 305 309 309 308 310 310 310 311 311 312 312 312 312 311 311 312 311 310 310 310 310 309 308 308 307 307 307 306 307 307 307 308 308 309 309 311 312 311 310
318 321 319 320 320 321 324 326 323 320 320 322 326 324 321 319 320 323 325 321 323 327 324 320 319 317 322 332 332 328 326 322 322 326 325 325 328 332 336 340 343 347 347 338 333 332 322 316 313 306 305 308 307 309 311 310 311 312 311 312 312 311 311 311 310 310 309 309 309 308 307 307 306 306 306 306 306 306 307 307 308 309 310 311 311 309
321 322 318 318 318 318 321 323 323 322 321 322 328 326 320 320 320 320 321 320 321 324 323 321 318 315 321 327 325 326 326 321 322 327 326 326 333 335 335 340 343 342 341 340 340 339 331 325 317 306 304 306 306 307 309 309 310 311 311 311 311 311 311 310 310 310 309 309 309 308 307 306 306 306 306 306 306 306 306 306 307 308 309 310 310 308
327 324 315 315 317 315 316 318 321 323 322 321 324 323 320 320 319 318 320 321 319 319 319 319 318 316 318 319 319 323 328 327 327 330 330 330 335 336 333 336 339 335 335 339 340 337 331 330 326 312 303 305 307 307 308 309 309 309 310 311 311 311 311 310 310 309 309 309 308 308 308 307 306 306 305 305 305 305 305 306 306 307 308 309 309 308
325 322 316 316 317 314 316 323 324 321 320 320 320 320 321 320 319 319 319 318 317 319 318 317 317 317 316 316 318 320 324 326 325 326 328 326 327 329 328 329 330 330 333 335 334 334 331 329 329 317 304 304 307 307 308 309 309 309 309 309 310 310 310 310 309 309 309 308 308 308 308 307 306 305 305 305 304 304 304 305 305 306 307 307 307 307
324 321 319 318 317 315 317 324 325 320 319 320 318 319 320 320 320 319 318 317 317 318 317 315 317 318 315 315 317 317 317 319 319 320 322 321 322 324 323 323 324 324 327 328 327 328 324 322 327 321 307 306 308 307 309 309 308 309 309 309 310 309 309 310 309 308 308 308 308 308 308 307 306 305 304 304 304 303 303 303 304 304 305 306 306 305
321 322 323 319 317 318 318 321 323 319 319 320 319 319 318 318 320 319 318 317 317 317 317 316 317 317 314 314 318 321 321 318 317 319 320 319 319 320 320 321 322 323 324 325 326 327 324 324 326 317 306 306 308 308 309 309 309 309 309 309 309 309 309 309 308 308 308 307 308 308 307 306 305 305 304 303 303 303 302 302 303 303 303 304 304 304
318 321 324 320 319 320 319 320 321 320 320 322 323 323 320 319 318 318 319 319 318 318 318 317 319 317 315 316 320 323 321 318 318 319 318 318 317 318 320 322 323 323 324 325 325 327 326 324 323 317 309 307 309 309 309 310 310 310 309 309 309 309 309 308 307 308 308 307 308 307 306 306 305 304 303 303 302 302 301 301 301 301 302 302 302 302
318 320 323 322 320 320 319 320 321 320 320 321 322 323 322 320 318 317 318 318 318 319 319 319 319 318 316 316 319 320 318 318 319 318 316 317 318 318 320 322 321 320 320 322 322 323 324 324 324 321 313 309 310 311 310 311 311 310 310 310 311 310 309 307 307 307 307 307 307 306 306 305 305 304 303 302 302 301 301 300 299 300 300 300 300 300
319 320 322 321 320 319 319 320 321 320 320 320 320 319 318 318 318 319 318 318 318 318 319 319 318 317 316 316 318 319 317 318 319 317 316 317 318 320 322 321 320 319 320 323 322 322 324 322 317 314 310 310 312 312 311 312 311 311 311 312 311 310 308 306 307 307 307 307 307 306 306 305 304 303 302 302 301 301 300 299 299 299 299 298 298 298
317 318 318 319 320 320 319 320 321 321 321 320 317 317 318 317 317 319 318 318 318 317 317 318 317 316 316 316 317 318 318 318 317 317 317 316 317 321 323 321 320 320 322 323 320 320 321 316 310 309 310 311 311 311 312 312 312 313 313 312 311 309 307 307 306 306 306 306 306 306 305 304 303 303 302 301 301 300 300 299 298 298 298 297 297 296
314 315 316 316 318 320 319 319 322 322 321 322 320 319 318 316 316 318 317 317 317 317 318 318 318 317 317 317 317 318 317 317 318 319 318 315 316 319 320 319 320 320 320 319 318 319 317 311 307 308 310 311 311 312 312 312 312 313 313 312 310 309 307 307 306 305 306 306 306 305 304 303 303 302 301 301 300 299 299 299 298 297 297 296 296 296
314 314 315 315 317 319 319 320 322 322 320 321 322 321 318 317 317 318 318 318 316 316 317 317 317 317 317 317 317 317 318 320 320 319 316 314 317 320 320 319 319 320 320 316 315 316 312 308 308 309 309 311 311 310 311 311 311 311 311 311 310 309 308 306 305 305 305 305 305 304 304 303 303 301 301 300 299 299 298 298 298 297 296 295 295 295
315 314 315 316 317 318 320 320 320 321 320 320 320 319 318 319 320 319 319 319 317 316 316 316 316 316 316 317 316 317 319 319 318 317 315 318 322 321 320 318 314 315 316 312 309 310 310 308 309 309 308 309 309 309 309 309 308 308 308 309 308 308 307 304 304 305 305 304 305 304 304 304 302 301 300 299 298 298 298 298 297 296 296 295 294 294
316 315 316 317 317 317 318 319 319 320 320 319 317 317 320 322 321 319 319 319 319 318 316 315 316 316 316 316 318 319 318 318 318 316 316 323 325 320 318 318 310 306 309 308 306 307 308 307 307 307 306 307 307 307 307 306 306 306 306 307 307 306 305 303 304 305 304 304 305 305 304 303 302 301 300 298 298 297 297 297 296 296 295 295 294 294
315 315 315 316 317 318 318 319 319 318 318 318 317 318 322 324 320 318 319 320 320 320 319 317 316 317 317 317 319 319 318 318 320 316 314 318 320 314 314 317 310 304 305 306 305 305 305 305 305 306 306 305 305 306 305 305 305 304 304 305 306 304 303 303 304 305 305 305 305 304 303 303 302 301 300 298 298 297 297 296 296 295 295 294 294 294
315 315 315 315 317 318 318 318 318 317 318 321 320 319 320 319 318 319 321 320 318 317 318 318 316 316 317 317 317 318 319 320 319 315 311 312 313 310 308 310 309 305 304 305 305 304 304 304 304 304 305 305 305 305 304 303 303 303 303 304 304 303 303 304 305 305 305 304 304 303 302 302 302 301 300 299 298 297 297 296 295 294 294 293 293 293
316 315 315 315 316 316 318 318 318 317 320 323 323 321 318 317 318 321 320 317 313 312 313 315 315 314 315 316 315 315 317 316 313 310 307 307 309 309 305 302 303 303 303 304 305 304 303 303 302 302 303 304 305 304 303 302 301 301 302 302 301 302 304 304 304 304 303 303 302 301 301 301 301 301 300 299 298 297 296 295 295 294 293 293 292 291
317 317 316 316 316 316 317 318 318 319 320 321 320 319 317 317 320 319 315 311 310 309 310 312 313 312 313 313 313 313 313 312 310 309 307 304 306 309 306 302 301 302 302 303 304 304 303 302 301 301 303 304 304 302 301 300 300 300 300 300 300 303 304 303 302 302 301 301 301 301 301 300 300 300 300 299 297 296 295 294 294 293 293 292 291 290
316 317 317 317 316 316 317 317 318 319 317 315 315 316 315 315 315 313 310 309 308 308 308 309 310 310 311 311 311 312 311 311 310 309 308 305 303 305 304 302 302 301 300 301 302 303 303 301 300 301 303 304 304 301 299 298 298 299 298 298 301 302 301 300 300 300 300 300 300 300 300 299 299 299 299 298 296 295 294 293 293 292 292 291 290 290
315 316 316 316 316 316 317 317 317 315 312 312 315 315 313 311 311 311 310 309 308 307 307 307 306 306 306 306 307 309 309 309 308 307 306 305 304 303 302 301 300 299 299 300 301 302 302 300 300 300 302 304 304 303 300 298 297 297 297 298 301 300 298 298 299 298 298 299 299 299 299 298 298 298 297 297 296 295 294 293 292 291 291 290 290 289
314 313 313 314 315 315 314 314 314 311 310 310 312 312 310 307 308 310 309 307 307 307 307 307 306 305 304 304 304 306 307 307 307 306 305 304 304 303 302 301 299 298 299 299 300 301 301 300 299 299 300 302 304 303 300 299 297 296 297 299 299 297 296 297 297 297 297 298 297 298 298 297 297 297 296 296 295 294 293 292 291 290 289 289 289 289
311 310 311 313 314 313 312 312 311 309 308 309 309 309 309 308 308 309 308 307 307 307 306 306 306 305 304 303 303 305 306 306 306 306 305 304 304 302 301 299 298 298 299 299 299 300 299 298 298 297 297 299 302 302 300 298 296 295 297 298 297 295 295 295 295 296 296 296 296 296 296 296 295 295 295 295 294 294 293 291 290 290 289 289 289 289
309 310 312 313 312 312 312 310 308 306 306 308 307 307 307 307 307 308 307 305 305 306 306 305 305 304 303 302 303 304 305 305 305 305 304 304 303 302 302 301 299 298 298 299 299 299 298 297 296 295 295 297 299 299 298 297 296 296 296 295 295 294 294 294 294 295 295 295 295 295 294 294 293 293 293 293 293 292 292 291 290 289 289 288 288 288
309 308 310 311 312 313 311 307 305 305 306 307 306 304 305 306 306 305 303 302 302 302 302 302 302 302 302 302 301 302 303 303 303 303 303 302 301 301 301 300 298 297 298 299 299 299 298 296 295 295 294 295 297 297 297 297 297 296 295 294 294 293 293 293 294 294 294 294 293 293 292 292 292 291 291 291 291 291 290 290 290 289 289 289 288 288
307 307 308 308 308 309 308 307 306 306 306 307 305 302 300 300 300 299 297 296 297 296 297 297 298 298 300 300 300 301 301 300 300 300 301 300 300 300 299 298 297 297 298 298 298 298 297 296 295 295 294 294 296 296 295 296 296 295 294 293 293 292 292 293 293 293 293 292 292 292 291 291 291 291 290 290 290 290 290 290 290 289 289 289 289 289
304 306 307 306 306 307 308 308 307 306 307 307 302 295 291 291 293 293 292 292 293 292 292 293 294 294 295 296 297 298 298 297 297 297 298 298 298 298 297 296 296 297 297 297 297 297 297 296 295 294 294 294 295 295 294 295 295 294 293 292 292 292 292 292 292 292 291 291 291 290 290 290 290 289 289 289 289 288 288 289 289 289 289 289 288 288
305 306 305 304 305 305 306 307 305 303 306 305 297 289 286 286 289 290 290 289 289 288 288 289 291 292 292 292 293 294 295 295 295 295 295 296 296 295 295 295 295 295 296 296 296 295 295 295 295 294 294 294 294 294 294 294 294 293 292 291 291 291 291 291 291 291 291 290 290 290 289 289 289 288 288 288 288 287 287 287 287 287 287 288 288 287
Wind_Speed
4 4 1 4 5 6 7 7 7 6 6 7 5 4 3 2 2 4 2 3 2 2 5 7 7 9 9 11 11 11 10 8 9 9 9 10 9 9 9 9 9 10 10 13 19 23 27 30 31 30 30 29 30 31 32 33 35 36 36 36 36 36 35 35 34 34 34 34 33 32 32 31 29 28 29 30 30 30 30 29 30 32 34 37 37 37
5 4 4 7 8 8 7 7 6 4 5 6 5 4 3 0 2 4 2 3 2 1 5 4 5 11 10 10 11 9 9 11 12 11 11 11 9 8 9 10 10 9 7 6 11 17 23 26 27 28 28 29 30 31 33 34 34 34 35 36 37 36 37 37 37 37 37 37 36 35 34 33 31 30 30 31 31 31 30 29 29 31 33 36 37 37
4 2 8 8 7 5 2 4 7 5 5 5 4 5 2 2 2 3 3 3 2 1 4 4 5 12 12 9 11 11 11 13 12 10 11 10 9 10 10 10 10 9 8 6 7 11 19 23 25 27 28 30 31 30 31 32 32 32 33 35 35 36 37 38 38 38 37 36 35 32 31 31 31 30 31 31 31 31 31 31 30 30 30 33 36 36
2 5 9 7 5 6 4 4 8 6 4 4 4 5 1 3 1 2 4 4 2 1 3 5 5 10 12 8 10 12 12 13 12 10 10 9 10 12 11 9 9 10 9 8 7 7 13 19 22 25 27 28 28 27 29 30 32 33 34 34 35 35 36 37 37 37 36 33 31 29 28 28 29 29 29 29 29 30 32 34 34 34 31 30 34 35
4 6 4 4 5 7 5 3 7 5 1 1 3 5 3 3 3 3 2 3 3 4 3 5 6 7 7 6 8 7 5 9 11 10 11 11 11 11 9 8 9 10 9 8 7 7 10 15 21 24 25 25 26 28 30 32 33 35 35 35 35 35 34 35 35 34 33 31 29 28 25 24 25 25 25 27 29 31 32 35 36 37 35 32 33 36
6 6 2 7 4 5 7 3 3 6 1 4 2 5 6 5 4 2 3 4 5 5 3 3 4 6 6 5 8 6 3 6 6 6 11 12 9 9 8 9 9 9 8 7 7 8 10 14 17 19 21 24 27 29 31 32 33 34 34 34 34 33 33 33 33 33 32 31 30 29 27 26 26 25 27 30 32 32 33 34 35 35 35 35 33 35
3 1 4 7 5 6 7 2 3 6 5 1 4 4 6 6 6 4 5 4 1 4 3 2 1 6 7 6 10 9 7 8 7 7 11 10 8 8 8 9 9 8 8 6 5 7 10 12 14 16 21 25 28 29 30 30 31 31 32 32 33 32 32 32 32 32 32 32 31 31 31 31 30 29 31 32 31 30 31 32 32 32 33 35 35 35
2 3 5 5 5 6 5 2 4 6 7 3 5 2 5 7 5 4 6 3 3 3 5 1 3 4 6 7 11 12 10 10 9 10 12 9 8 8 8 9 9 8 7 6 6 7 8 12 16 19 23 26 27 27 28 28 30 30 30 31 32 32 32 32 32 32 32 33 32 32 32 32 32 31 30 30 28 28 28 29 30 31 32 34 36 35
2 5 5 5 5 3 4 4 5 8 7 5 5 4 6 7 6 5 6 2 1 2 5 4 2 2 7 7 6 6 7 9 10 13 13 10 9 8 8 9 8 7 7 7 7 7 8 14 19 22 24 25 26 25 26 27 28 29 29 30 30 31 31 31 31 31 32 32 32 32 32 32 31 29 27 26 27 27 26 27 29 30 31 33 35 37
1 5 6 6 5 5 4 2 3 6 5 4 2 6 6 5 5 5 5 2 3 2 5 5 5 2 6 6 2 2 3 8 10 10 10 9 9 8 7 7 5 4 5 5 4 7 10 16 20 21 21 22 23 23 24 25 26 27 28 29 30 30 30 30 31 31 32 32 32 32 32 31 29 27 26 23 24 26 26 27 29 30 31 33 36 38
2 1 2 3 3 5 5 2 2 4 6 5 5 7 7 6 5 4 3 4 3 4 6 8 9 4 4 5 4 4 4 8 7 6 7 8 7 6 5 4 5 5 5 4 3 4 8 13 16 17 18 19 21 21 22 24 25 27 28 29 29 30 29 30 30 31 32 32 33 33 32 32 30 28 26 25 25 26 27 28 30 32 33 34 36 37
5 2 0 0 1 4 6 5 5 4 5 7 5 5 4 4 5 5 5 4 1 5 7 7 6 4 5 6 3 5 6 5 7 6 6 7 5 4 5 5 5 5 5 5 5 5 6 8 11 14 16 17 19 21 22 24 25 26 28 29 29 29 29 30 31 31 32 33 33 33 32 32 30 27 27 27 26 27 28 29 31 33 34 34 35 36
3 2 2 1 1 3 7 5 4 6 5 5 5 6 4 2 3 3 3 0 3 6 6 4 1 3 7 6 5 7 8 6 7 7 6 6 5 5 6 6 5 5 5 6 5 5 6 6 9 13 15 17 19 22 23 24 25 27 28 28 29 30 30 30 31 32 33 33 33 33 32 31 29 27 27 27 27 28 28 30 32 34 36 36 35 36
2 5 1 2 2 2 6 6 3 1 0 4 5 6 4 3 1 3 3 2 4 5 5 2 1 3 5 4 7 9 8 7 6 6 7 7 7 7 7 6 6 5 5 6 6 6 6 6 10 13 16 18 20 22 23 25 26 27 28 28 29 30 30 31 32 33 33 34 33 33 32 31 29 28 28 28 29 29 30 31 33 35 36 37 37 37
4 5 3 6 3 4 7 6 7 6 4 5 5 6 6 5 5 5 4 3 5 4 4 3 1 3 2 3 7 7 7 7 6 6 7 6 5 4 4 5 5 6 6 5 5 6 7 9 12 15 16 18 20 22 24 25 26 27 28 29 30 30 31 31 32 33 34 34 33 33 32 31 30 30 30 30 31 32 32 32 33 35 35 35 35 35
5 6 6 4 2 9 10 5 6 7 2 3 3 5 4 6 5 3 3 6 4 2 3 2 4 5 4 6 8 6 8 8 6 7 6 7 7 3 3 5 5 5 6 5 6 7 8 10 13 16 17 19 21 22 24 25 26 28 28 29 30 30 31 32 33 34 34 34 34 33 33 32 31 31 30 31 32 33 34 34 35 35 35 34 33 33
4 4 4 0 0 6 8 5 5 4 3 2 3 4 5 5 7 3 3 0 3 2 4 2 6 6 3 7 9 8 11 10 6 7 6 8 8 5 6 7 5 5 6 6 7 8 8 10 14 18 20 21 22 23 25 26 27 28 28 29 30 30 31 32 33 33 33 33 34 34 33 33 32 32 32 32 33 33 33 34 34 34 34 34 33 34
5 2 4 2 2 4 1 3 1 1 4 6 4 6 3 2 3 3 1 2 2 4 5 2 7 7 2 5 5 1 7 9 7 8 8 9 7 6 8 8 6 6 6 7 8 7 7 10 15 18 21 23 24 25 25 26 26 27 28 29 30 31 32 33 33 33 33 34 34 34 33 33 33 33 32 32 32 32 32 33 34 34 34 35 35 36
5 3 4 1 3 4 3 3 1 4 1 5 5 4 4 2 1 2 2 2 1 3 5 3 5 5 6 7 3 2 6 8 9 9 8 10 9 8 8 8 7 5 5 6 6 7 6 9 14 18 21 23 24 24 24 24 24 26 28 29 30 31 32 32 32 32 33 34 34 34 33 33 32 32 32 32 32 33 33 34 34 34 34 35 36 38
3 4 4 2 1 2 3 2 6 3 2 1 1 1 2 3 4 3 3 4 4 4 5 4 3 4 6 7 6 8 11 11 11 10 9 11 10 8 7 8 7 6 5 6 6 7 6 9 16 20 21 22 23 23 23 22 24 26 28 29 31 31 30 30 31 33 34 34 34 34 33 32 32 31 32 32 33 34 35 36 35 34 34 35 35 37
2 4 4 2 3 0 2 4 8 9 5 3 3 4 2 1 2 2 2 3 4 4 3 4 6 7 5 5 8 11 12 12 12 10 9 10 9 8 7 7 7 6 6 6 6 7 6 9 15 19 19 19 20 21 22 21 23 26 27 30 31 30 30 31 32 34 35 35 35 34 34 33 32 31 31 33 33 34 35 36 36 35 35 34 34 35
3 3 4 2 1 3 6 6 6 10 10 8 7 8 8 6 5 3 4 2 2 3 5 3 8 10 5 5 7 9 9 10 9 9 8 8 7 8 7 7 7 6 7 7 7 6 6 8 13 15 16 16 18 21 22 20 21 25 27 29 29 30 31 33 34 34 35 35 36 36 35 34 33 31 31 33 34 34 35 36 36 36 35 34 34 34
4 4 4 3 3 5 6 5 2 6 6 3 4 6 6 6 6 6 6 4 1 3 4 3 5 9 3 4 6 6 7 8 8 9 8 6 6 6 7 7 6 6 6 5 4 4 5 8 11 12 13 15 18 23 22 19 19 23 27 28 28 30 33 34 34 34 34 35 36 37 36 35 34 32 32 34 35 36 36 36 36 37 36 36 35 34
3 3 3 1 2 3 4 5 4 1 2 3 4 3 4 4 4 5 5 4 3 5 5 3 6 9 4 1 3 2 1 1 4 6 7 5 5 7 7 6 5 5 3 3 3 4 5 7 8 9 12 15 20 24 22 19 20 22 24 27 29 32 34 34 33 33 33 35 36 36 35 35 35 34 34 35 36 37 37 37 37 37 37 37 36 35
4 4 4 3 1 3 3 3 4 3 1 3 4 4 6 7 6 4 2 3 2 7 8 6 8 9 4 4 3 4 5 3 1 3 4 3 3 4 3 2 3 2 4 5 4 5 6 7 6 8 12 16 21 24 21 20 22 23 24 26 29 32 34 33 33 33 33 34 35 35 36 36 35 36 36 37 37 38 37 37 38 38 38 37 36 36
5 5 6 6 7 7 6 5 4 3 2 2 5 8 10 11 11 7 3 3 6 9 8 7 10 10 3 4 5 5 5 3 5 5 3 2 3 3 2 3 5 5 4 5 6 6 7 7 6 10 14 17 22 23 20 19 22 23 25 27 29 32 33 33 33 33 33 34 35 36 37 37 38 38 38 38 38 38 38 38 39 39 39 38 37 37
3 4 8 10 11 12 11 8 6 7 7 7 10 11 12 12 13 10 5 6 11 10 7 9 13 15 11 3 1 3 3 4 6 6 6 5 5 5 5 5 6 4 4 6 6 7 7 7 8 11 15 19 22 22 20 21 24 25 26 27 29 31 32 33 33 33 34 35 35 37 39 40 40 39 38 38 37 37 38 39 40 40 40 39 39 39
4 4 9 12 14 14 10 7 8 12 12 14 15 13 12 12 13 13 11 13 14 8 9 13 12 15 18 10 7 9 6 5 7 6 6 6 5 5 5 6 7 6 6 7 7 9 9 9 9 10 14 20 21 20 21 24 26 27 27 28 29 30 31 33 33 33 34 35 36 39 41 41 40 39 38 37 37 37 38 39 40 40 40 40 41 42
5 6 8 10 13 14 8 5 8 13 12 13 15 16 15 15 16 17 19 20 16 10 12 16 12 16 21 12 9 12 9 6 8 7 6 5 5 6 7 8 9 8 8 9 10 10 10 10 10 10 14 17 17 19 23 25 27 28 29 30 30 30 31 33 33 33 34 36 38 42 43 40 39 39 38 37 37 38 38 38 39 40 40 41 42 42
4 4 5 7 9 12 9 6 7 9 7 6 9 12 14 16 19 21 22 22 18 13 15 18 15 19 19 7 8 11 8 5 6 5 5 6 6 7 8 8 9 9 10 10 10 10 10 10 10 10 12 15 16 20 23 25 27 28 29 31 30 31 32 31 32 34 35 37 40 43 41 38 38 38 37 38 38 38 37 38 39 39 40 41 42 42
2 3 1 4 5 10 9 6 6 6 5 2 5 6 9 13 17 19 18 16 14 13 16 18 16 17 13 4 6 8 5 2 5 7 8 9 9 7 7 8 10 10 9 9 10 10 10 10 10 9 10 15 18 21 22 24 27 27 28 30 31 33 33 30 31 34 35 38 41 41 38 37 38 37 37 38 38 37 37 37 38 39 41 41 41 41
0 1 2 3 4 9 7 6 6 4 4 2 8 10 12 12 10 12 12 12 13 15 15 14 13 15 11 4 3 7 5 4 9 11 10 10 8 6 7 10 11 9 8 9 10 11 11 10 10 9 11 17 21 22 21 22 24 25 27 30 32 33 30 29 31 34 36 39 39 38 38 38 38 37 37 38 38 37 36 36 37 39 40 41 41 40
2 2 1 2 4 10 7 7 7 4 2 5 12 15 17 12 6 6 9 13 15 12 10 10 12 15 11 3 4 9 8 7 11 11 11 9 7 6 9 11 11 8 8 9 10 10 11 10 11 13 16 20 23 23 22 21 22 24 27 30 30 29 27 28 31 33 36 37 38 38 39 38 37 37 37 37 37 37 36 36 38 40 41 41 40 39
2 3 1 2 3 8 6 6 6 4 6 11 12 11 12 13 10 10 11 12 11 9 8 9 11 13 13 7 8 10 10 11 11 11 12 7 5 6 9 11 9 8 8 10 10 9 10 10 12 16 19 21 22 22 21 20 21 24 26 28 27 27 27 28 30 33 35 37 38 39 38 37 36 37 37 37 36 36 36 37 40 41 40 39 38 38
3 3 2 2 2 4 1 5 4 9 9 9 8 6 10 14 15 16 16 14 12 11 10 11 13 15 14 12 11 11 12 11 9 12 13 4 6 6 9 10 9 10 10 10 10 9 8 9 12 16 18 19 20 19 19 19 21 23 25 25 25 26 27 28 29 31 33 36 38 38 36 36 36 36 36 36 36 36 37 38 39 39 39 38 38 39
7 5 3 2 2 2 1 5 6 5 3 6 8 7 8 8 9 11 13 14 14 13 12 13 17 17 16 15 14 11 10 8 8 11 9 2 6 8 11 10 8 9 10 8 7 8 9 10 12 14 16 18 19 20 20 20 20 21 23 24 24 25 26 26 27 29 33 36 37 36 35 36 37 37 36 35 35 36 37 38 39 38 37 36 36 37
9 6 4 4 4 4 4 5 4 4 6 9 10 5 4 5 7 9 8 10 11 13 14 15 18 19 18 17 13 10 7 6 9 10 4 6 9 9 7 5 2 3 7 7 6 9 11 13 14 15 16 18 21 22 23 22 22 21 22 22 22 24 24 23 26 31 34 36 35 35 36 37 37 36 35 34 34 36 37 38 37 36 35 35 35 35
10 8 7 6 5 5 6 6 5 5 7 11 11 4 6 8 9 10 7 7 8 11 14 14 16 17 16 13 10 8 5 5 9 9 1 2 5 4 6 6 5 5 8 10 11 13 16 17 18 18 19 20 22 22 22 23 23 23 22 22 22 22 21 22 27 33 34 34 35 36 36 36 36 36 35 34 35 37 37 37 36 35 35 35 35 35
12 9 8 7 5 5 7 7 7 7 7 9 8 5 6 9 8 8 5 6 6 6 10 13 14 14 13 11 9 6 3 4 8 6 4 6 7 6 6 6 8 9 12 12 12 14 16 17 18 19 19 20 21 21 21 21 23 23 23 24 23 20 21 25 30 33 33 34 35 35 34 34 35 36 35 36 37 37 37 36 35 34 34 35 35 34
11 7 6 8 8 8 8 7 6 5 6 7 5 4 5 7 10 7 5 5 4 3 2 6 7 7 6 6 5 5 5 5 6 3 3 5 6 5 3 3 5 8 12 14 13 13 14 15 16 19 20 20 21 21 20 20 20 20 22 24 22 21 24 28 31 31 31 33 33 32 32 33 35 36 37 37 37 37 36 36 35 34 34 34 34 33
8 6 7 8 9 10 11 9 5 3 6 7 6 5 4 7 7 5 6 3 3 5 4 3 4 3 3 3 1 3 4 4 5 5 3 3 6 7 6 4 5 6 9 12 15 15 16 15 15 17 20 21 21 21 20 18 18 20 22 21 21 24 27 30 30 29 30 30 30 30 31 32 34 36 37 38 37 35 35 35 34 34 34 34 33 31
7 5 6 8 9 8 8 7 5 4 4 4 4 4 4 5 3 3 3 2 1 2 5 6 6 4 4 5 2 3 4 5 7 7 5 4 4 7 8 9 10 9 10 13 16 18 19 19 17 18 22 23 22 21 19 17 18 21 21 20 23 27 28 28 28 28 28 28 28 29 30 31 32 34 35 35 34 33 33 33 33 34 34 33 32 31
7 5 5 7 7 6 6 7 6 3 2 1 2 1 1 2 3 2 1 1 1 3 5 3 3 3 4 4 3 4 6 7 8 8 8 7 5 6 8 9 10 11 13 16 18 20 21 20 20 21 24 26 25 23 19 15 18 21 20 22 27 28 26 26 26 26 26 26 27 28 28 30 31 32 33 33 33 32 32 32 32 32 32 32 31 29
4 5 4 4 4 4 5 6 3 2 2 3 2 3 2 2 3 3 2 1 3 2 3 3 2 1 1 2 5 6 7 7 8 8 9 9 8 7 7 9 10 12 14 16 18 21 21 21 22 24 26 27 28 26 22 17 18 20 21 25 28 26 24 25 25 24 25 25 26 27 28 28 29 30 31 31 31 31 31 30 30 31 31 31 30 27
2 3 3 2 3 3 3 3 2 2 2 3 4 5 5 4 3 3 5 3 3 2 3 4 2 1 2 2 4 5 5 7 8 8 9 10 10 9 8 9 11 13 15 17 19 19 20 21 23 24 27 29 29 26 23 18 17 20 25 28 27 24 24 24 22 22 24 25 26 26 26 26 27 28 30 30 30 30 30 29 29 28 28 28 28 26
2 2 3 2 2 2 1 1 2 2 3 4 5 5 5 4 2 2 5 4 3 3 3 3 2 2 3 3 2 4 5 6 8 9 9 9 10 10 9 10 12 14 15 17 19 19 19 19 20 22 25 29 30 27 24 20 18 21 27 29 26 24 24 22 20 22 23 24 24 24 24 24 25 25 27 28 29 30 30 30 30 28 27 26 26 25
2 2 3 1 1 2 1 2 2 2 2 5 6 3 4 3 2 3 5 4 4 4 5 5 4 4 2 3 3 5 6 6 6 8 8 8 9 11 9 9 12 15 16 17 20 22 20 18 18 19 20 25 29 27 25 25 24 25 27 28 25 23 22 20 20 21 22 22 21 21 21 21 22 22 24 25 27 28 28 29 29 27 25 25 24 22
1 1 2 2 3 3 2 1 1 3 4 5 6 4 4 4 3 4 5 4 5 5 5 5 5 5 4 2 3 5 6 6 6 7 9 8 9 10 9 10 13 17 19 20 21 22 21 18 18 19 20 23 27 27 26 28 29 27 26 25 23 20 18 18 19 20 20 19 18 18 18 19 20 20 21 23 25 27 27 27 28 27 26 27 26 25
1 1 1 2 1 1 3 3 2 2 1 2 3 5 4 3 4 5 6 6 7 7 8 8 7 6 6 6 5 5 7 7 6 6 8 9 9 10 11 14 18 20 22 23 23 22 21 21 22 23 23 25 27 27 27 29 29 26 25 23 21 18 17 18 18 18 18 17 16 16 17 18 19 20 20 21 22 23 24 26 27 28 27 27 28 28
2 1 1 3 2 2 4 3 1 2 2 4 3 7 6 5 5 7 7 8 8 9 9 10 10 8 8 8 8 7 9 10 9 9 9 9 9 10 13 17 21 23 25 27 26 25 24 23 23 24 26 29 29 28 28 29 28 25 22 20 18 17 17 17 17 17 16 15 15 16 16 17 17 18 19 20 20 19 18 19 22 25 25 25 25 27
3 4 3 3 2 4 5 3 2 3 3 2 5 7 6 7 8 8 8 8 8 8 8 9 9 10 10 10 10 8 7 9 11 11 10 10 12 14 16 18 19 21 26 28 27 26 27 27 24 23 26 29 30 28 29 30 28 24 21 18 17 16 17 17 17 16 15 15 15 16 16 16 16 16 17 18 18 18 16 14 14 17 19 21 22 23
Wind_Direction
89 81 125 184 196 209 210 188 176 179 142 126 118 105 131 138 297 278 262 296 95 127 247 232 242 258 256 263 263 265 273 263 249 246 244 243 243 243 242 245 237 231 237 234 225 220 217 217 216 214 214 212 211 211 211 209 208 209 208 205 204 205 204 204 203 202 203 203 204 206 210 213 214 212 211 211 212 213 214 216 217 213 209 206 204 205
69 103 218 218 202 199 215 199 159 129 94 93 108 83 11 329 266 275 249 300 16 85 265 270 279 271 257 256 262 264 269 264 249 243 246 244 242 243 242 244 241 242 252 232 220 219 215 213 212 210 208 207 206 208 209 209 208 208 208 206 205 204 204 205 206 206 207 208 207 207 209 212 212 212 212 213 212 212 213 213 211 207 205 206 206 207
52 193 238 232 202 162 174 156 122 99 88 84 104 101 6 277 246 305 331 334 15 104 271 312 313 282 271 254 254 253 247 253 250 240 244 244 245 248 242 243 246 254 263 249 230 214 207 207 205 204 205 205 207 205 204 206 206 206 208 209 208 208 207 209 211 212 212 213 212 212 212 213 213 215 216 217 216 215 214 213 210 206 203 205 206 208
104 245 242 225 174 119 76 83 94 80 76 87 103 115 238 273 193 284 312 312 294 230 283 319 316 284 284 275 257 251 242 251 259 254 251 241 236 245 245 242 242 246 251 249 240 208 197 199 198 200 202 202 203 202 201 203 205 206 209 211 211 211 212 213 214 215 216 216 214 213 215 214 214 217 218 219 220 219 218 218 216 212 208 205 206 209
205 255 231 155 130 117 110 79 89 100 21 337 133 140 199 248 187 197 284 316 327 344 338 340 328 290 291 295 275 275 268 258 260 261 261 252 240 247 259 254 238 237 240 233 221 193 183 192 195 197 199 198 198 201 203 204 207 209 210 213 214 214 214 214 215 216 216 214 211 209 209 210 212 216 218 218 220 221 220 221 221 219 216 212 208 209
235 268 139 130 112 95 116 131 137 140 143 311 237 182 185 177 151 118 23 28 18 339 321 28 352 294 302 304 277 291 312 271 267 257 252 256 253 250 259 257 245 241 240 225 204 188 186 191 191 192 194 196 199 204 207 208 210 211 212 213 215 215 214 215 216 216 215 213 210 207 205 205 206 210 215 218 220 220 220 222 225 224 222 218 215 211
229 326 85 129 131 98 106 140 209 148 120 269 258 215 173 132 101 78 54 54 62 269 267 90 122 270 299 292 265 268 270 268 282 273 254 256 259 247 246 250 247 245 241 227 202 188 186 184 180 187 195 198 203 208 210 211 212 213 214 214 215 216 215 214 215 215 215 214 213 212 211 210 210 211 216 220 222 223 223 225 226 225 221 218 218 215
152 92 73 98 104 105 119 167 214 145 122 222 259 175 127 102 98 106 86 93 212 261 304 339 157 254 288 263 251 254 259 273 279 269 262 259 256 250 245 245 244 236 228 216 200 189 186 184 184 192 199 203 208 210 210 211 213 214 215 215 216 217 216 215 215 215 216 215 215 215 215 216 216 217 220 222 222 224 226 226 224 221 218 217 217 217
147 150 164 140 114 136 173 217 213 142 120 240 242 121 110 107 116 111 93 100 298 3 312 291 156 245 271 258 261 252 248 266 262 253 256 259 257 252 246 247 248 233 219 210 195 187 187 190 195 200 204 208 211 211 211 212 214 215 215 216 217 217 217 216 215 215 217 218 217 217 216 217 219 219 222 223 223 224 224 225 224 220 218 216 216 217
132 177 185 145 141 186 194 258 222 146 141 219 173 82 66 72 75 74 90 83 25 356 263 226 175 230 270 250 227 115 220 245 249 252 254 255 260 259 247 238 226 203 209 210 183 181 190 194 200 204 207 210 212 213 214 214 214 214 214 215 216 217 216 216 215 216 217 218 218 218 217 217 217 217 220 223 222 222 222 221 220 218 216 213 212 213
333 226 181 120 158 182 152 79 44 137 139 129 88 61 44 29 33 39 60 72 48 291 255 209 188 202 285 263 201 171 210 219 221 250 263 266 276 265 239 209 174 156 169 170 136 158 186 193 198 201 204 208 210 210 211 212 212 212 212 213 214 216 216 215 216 216 218 219 219 219 219 218 217 216 217 220 219 217 216 214 214 213 211 209 209 209
345 9 240 286 181 132 102 63 20 29 89 93 79 79 60 353 11 15 1 45 107 258 262 237 200 185 247 271 258 249 262 230 195 204 233 252 269 241 221 215 189 167 159 154 138 141 158 173 186 193 198 202 203 205 207 209 210 210 210 211 212 214 215 216 216 217 218 220 220 220 220 219 218 217 217 218 218 215 212 212 211 209 207 206 205 206
325 266 232 345 309 133 108 79 19 1 31 79 100 100 92 330 8 356 309 324 219 247 261 265 224 211 243 256 257 265 278 254 210 202 203 199 198 211 226 229 210 185 166 162 162 164 166 172 183 189 194 198 199 202 206 208 209 209 209 210 211 213 215 216 216 217 218 220 220 220 220 220 221 221 222 223 222 218 215 214 211 207 204 202 202 204
280 303 308 101 306 209 142 139 147 268 125 133 140 131 138 146 140 248 258 279 262 263 277 286 190 250 281 277 240 241 250 246 235 228 213 192 192 208 218 216 209 200 187 180 181 184 191 193 193 195 197 199 201 204 207 208 208 209 209 210 212 214 216 217 217 218 219 220 222 221 221 223 224 224 224 225 225 221 217 217 215 210 205 203 203 205
199 285 220 174 211 190 179 180 159 149 161 180 156 135 158 167 167 203 206 213 246 279 299 295 224 207 225 273 250 242 261 281 289 265 243 238 238 226 216 210 203 205 203 197 195 201 213 208 200 201 203 205 206 207 209 210 210 210 210 211 213 215 217 218 219 220 220 221 223 222 223 225 226 226 225 225 226 222 219 218 218 216 213 211 209 209
185 254 234 199 176 169 182 195 144 121 121 225 138 117 189 193 155 161 197 182 181 311 298 247 230 213 206 268 273 272 284 286 296 303 296 278 280 308 277 237 209 208 211 201 204 218 225 217 209 208 209 210 211 211 213 213 212 213 213 214 216 218 219 220 222 222 222 223 223 223 224 225 226 226 225 225 225 222 219 219 220 220 219 219 218 216
165 269 272 62 139 180 179 175 156 154 176 182 155 174 206 175 132 140 253 204 97 260 270 208 248 279 320 283 264 246 261 274 300 312 293 269 277 295 275 253 223 212 212 203 208 218 219 214 213 213 212 213 213 214 217 218 218 218 218 218 219 220 221 222 224 225 225 224 223 224 224 225 225 224 224 224 224 222 219 220 222 223 223 223 224 223
150 243 289 124 197 248 211 129 73 350 139 139 187 203 169 86 99 120 219 342 45 251 270 216 238 269 288 267 285 255 255 276 290 275 262 268 275 264 261 263 247 225 217 215 219 225 221 212 213 215 216 217 217 220 223 224 225 225 225 225 224 223 223 223 225 226 227 227 226 225 224 224 225 224 225 225 225 223 221 220 221 222 225 227 227 225
150 196 293 55 193 277 2 115 228 328 113 149 190 193 122 123 228 114 155 208 183 240 275 257 241 252 221 227 286 319 262 266 265 253 249 256 252 241 252 266 266 248 228 228 226 229 228 217 216 215 217 221 222 224 227 229 230 229 230 230 230 230 229 227 227 228 229 230 229 229 227 226 227 226 225 224 225 224 223 222 222 222 226 228 228 226
137 188 260 337 231 291 19 151 198 229 328 43 110 130 103 141 176 168 167 172 169 205 255 267 260 251 224 198 187 225 242 243 244 242 235 238 239 233 239 252 264 258 237 236 232 228 224 220 220 217 219 224 225 226 227 228 231 232 233 234 233 234 233 230 229 229 230 230 230 231 230 228 228 227 225 223 224 223 223 223 224 226 228 227 226 225
111 200 226 317 340 186 180 215 193 175 171 169 159 179 196 111 115 172 197 149 148 174 209 264 272 262 240 179 177 206 226 228 227 227 227 233 234 230 232 240 254 257 247 241 231 225 223 223 224 222 223 228 229 229 225 225 231 234 235 236 234 233 233 232 231 230 231 231 230 231 231 230 229 227 224 223 223 223 222 222 224 227 228 226 224 224
190 199 167 151 270 202 220 244 205 184 184 178 180 191 191 171 143 175 243 235 128 166 176 198 269 268 233 185 197 207 222 227 216 207 221 235 235 233 234 235 241 248 251 245 229 218 217 222 225 223 223 227 227 227 223 222 230 235 236 237 235 234 235 235 233 232 232 232 232 231 232 233 232 228 224 222 223 223 221 221 222 224 225 226 226 227
161 113 130 178 214 213 240 277 218 197 210 212 206 195 184 180 163 168 215 228 143 223 201 146 261 270 247 173 199 209 224 224 202 193 203 222 230 233 240 243 241 241 246 253 246 237 229 223 222 219 220 223 228 229 226 224 230 237 239 237 235 236 238 237 236 235 234 233 233 233 231 232 231 229 225 223 223 224 222 222 221 221 223 226 229 231
134 110 147 211 320 331 318 334 2 35 197 234 239 185 150 187 179 156 184 182 162 221 211 158 245 263 292 244 181 173 224 160 153 174 174 179 210 222 233 241 235 240 277 347 340 306 274 239 220 216 220 223 229 232 230 229 235 239 240 237 236 238 240 239 237 236 235 235 235 234 231 230 229 228 226 224 224 224 223 222 222 221 222 225 228 230
186 182 152 137 287 319 336 333 330 336 211 216 230 193 177 188 171 140 157 155 195 225 198 190 240 248 288 333 356 20 9 31 119 193 173 167 224 226 222 248 259 308 357 350 315 291 270 251 230 225 228 229 233 235 234 236 240 241 241 240 239 241 241 239 237 236 235 236 236 236 233 230 228 228 228 226 224 224 223 222 222 222 222 224 226 227
180 186 164 165 200 220 223 218 214 205 179 206 225 206 195 187 176 176 187 177 223 232 197 194 242 244 256 2 8 7 356 311 275 286 302 336 348 344 338 322 331 355 340 284 267 259 257 258 251 243 239 237 239 242 242 244 246 246 246 245 244 243 241 239 237 235 235 235 235 236 235 233 230 228 228 227 225 224 223 222 222 222 223 224 225 226
145 199 195 191 205 215 218 217 174 143 155 200 219 209 199 194 185 180 180 198 218 230 219 219 238 250 250 227 228 285 299 270 276 307 316 312 329 331 320 318 328 323 276 263 261 262 265 263 255 249 246 245 245 248 251 251 252 251 249 250 250 246 242 240 238 234 233 233 234 236 236 235 232 230 229 229 227 225 223 222 222 223 224 225 224 224
124 212 210 203 218 225 219 206 168 159 178 201 209 205 199 196 187 185 200 216 215 216 237 234 226 248 254 231 216 251 257 261 274 280 281 285 301 313 315 315 313 301 281 272 264 262 260 258 259 253 249 250 250 255 258 256 257 256 254 255 255 249 244 242 237 233 233 232 233 236 237 236 235 233 231 231 230 227 224 222 222 223 224 225 224 223
143 212 214 201 226 235 221 192 179 181 191 201 204 205 201 193 190 197 212 221 214 201 236 241 214 231 251 235 204 233 233 225 250 255 262 285 308 308 306 305 301 293 282 274 269 266 260 257 260 253 252 255 255 259 262 260 259 258 257 258 258 253 249 244 236 232 232 231 232 237 238 236 235 234 233 231 231 229 226 223 223 223 223 224 224 223
157 215 212 184 223 240 228 206 189 188 192 209 214 209 202 199 199 204 213 221 220 213 232 244 234 238 251 227 185 226 227 201 225 249 272 279 275 276 283 287 284 275 270 268 267 268 267 263 260 256 259 261 257 258 260 261 263 262 260 261 259 256 254 246 236 233 232 231 234 238 239 237 236 234 231 230 230 229 227 224 222 222 222 222 222 222
192 221 149 128 210 245 232 196 171 158 149 211 253 231 213 211 210 215 220 221 225 227 232 243 252 256 254 185 175 231 235 230 270 270 270 272 268 263 262 259 257 255 259 266 267 268 271 272 269 264 262 263 264 263 262 264 268 267 266 266 264 262 259 247 237 235 233 234 237 238 237 237 236 233 230 229 229 228 227 225 222 221 222 221 221 221
195 209 36 89 202 243 226 159 145 125 108 241 266 248 228 217 207 217 225 219 219 226 230 238 251 257 249 167 186 257 248 253 272 267 262 266 262 252 251 253 254 252 250 255 258 262 267 269 268 266 268 273 277 277 273 273 275 272 270 271 271 269 261 248 241 238 236 237 239 238 236 236 235 232 231 229 228 227 226 224 223 222 222 221 221 220
95 107 55 121 196 244 234 141 125 110 96 243 243 235 230 222 190 194 222 228 224 219 224 230 236 252 259 207 223 269 269 256 262 264 260 255 236 226 241 252 258 257 251 250 250 252 256 257 261 265 271 278 283 287 291 289 281 277 277 278 277 271 261 251 246 241 239 240 239 237 237 236 233 232 231 229 228 227 225 223 223 223 222 221 220 219
108 120 181 163 192 250 243 117 117 182 222 239 239 224 219 217 207 208 221 228 221 209 223 241 246 259 270 255 236 252 260 257 259 263 264 248 181 201 243 256 260 257 255 257 255 251 253 258 267 273 278 284 291 297 302 297 288 286 287 283 277 269 261 254 248 242 241 241 240 239 237 235 233 232 231 230 228 226 224 223 224 224 223 221 219 218
174 165 194 185 200 253 209 118 194 227 226 246 262 228 207 211 214 222 231 232 223 215 223 241 250 253 256 255 249 245 252 261 261 261 268 253 144 189 243 256 257 254 256 263 266 263 265 272 280 288 295 303 307 307 305 300 296 294 291 286 278 270 262 255 248 244 243 243 242 240 237 234 233 232 231 229 226 224 223 223 224 224 222 221 220 218
184 185 183 182 193 233 186 184 219 247 273 287 280 246 213 205 201 215 240 244 232 225 223 231 243 249 250 252 254 254 260 271 271 264 264 191 160 211 239 245 249 255 261 272 282 284 293 299 299 303 309 314 315 313 310 309 307 301 295 290 281 273 265 256 249 247 246 244 243 241 237 235 234 233 231 227 224 223 223 224 224 223 221 220 220 220
185 179 184 209 201 204 229 228 243 307 304 275 264 240 165 160 171 182 225 247 230 219 222 229 238 245 250 253 257 267 277 285 285 279 239 169 206 237 256 268 294 298 287 299 314 310 318 325 321 321 321 318 315 315 315 316 315 310 301 293 283 274 266 255 249 250 248 246 244 243 240 237 234 233 231 227 223 224 224 224 224 223 220 219 219 220
191 184 188 205 202 198 226 244 250 261 257 251 254 238 154 172 180 171 195 242 232 211 215 225 234 240 247 255 257 266 286 292 282 283 290 184 264 328 12 355 6 2 324 327 337 333 334 337 331 327 324 318 316 319 321 319 317 314 306 297 288 278 266 254 252 254 252 249 249 247 243 238 235 233 230 227 225 225 225 225 224 222 219 218 219 220
199 197 193 201 205 197 210 229 232 233 243 248 252 241 194 184 161 139 180 248 249 208 202 214 227 233 238 246 242 228 224 256 263 279 14 4 333 9 26 350 346 348 338 338 339 332 334 336 331 326 325 321 320 324 326 321 318 314 306 298 293 283 267 259 259 259 258 257 256 251 245 240 236 233 230 228 227 226 225 225 223 221 219 218 219 221
199 199 200 207 212 207 210 228 233 231 245 242 231 231 209 155 124 132 202 254 302 325 225 211 229 246 245 253 250 208 195 233 258 283 7 347 322 335 3 355 340 332 330 334 337 334 331 330 326 324 323 323 324 326 325 320 314 306 297 295 292 281 270 269 271 270 268 265 261 254 248 243 238 234 232 230 229 227 225 224 222 220 218 217 218 219
197 196 200 206 215 214 215 227 239 237 242 236 218 207 169 123 120 175 206 219 348 353 4 55 57 18 9 35 35 212 218 256 278 277 298 338 333 326 325 324 312 305 310 320 329 332 328 322 319 315 314 317 320 320 320 316 305 294 291 289 283 277 278 281 281 279 274 269 264 257 251 246 240 237 235 233 230 227 224 223 221 218 216 215 215 215
194 195 200 203 214 220 218 228 246 250 243 218 190 180 149 139 174 217 184 172 157 61 53 58 61 38 25 50 71 237 264 295 299 298 319 355 344 311 311 323 326 323 320 320 325 330 326 321 318 312 311 315 315 312 314 311 296 290 291 285 280 284 290 289 285 281 277 271 265 258 252 247 243 239 236 233 229 224 221 220 219 217 214 212 211 212
186 190 200 198 202 210 215 225 233 244 304 340 146 140 65 162 197 200 108 260 233 104 93 82 76 49 25 21 347 304 307 314 316 322 327 330 323 306 308 318 318 315 317 317 319 323 321 315 311 308 309 313 312 310 312 304 289 287 286 282 286 295 297 291 286 282 276 268 262 257 252 247 243 238 234 231 226 221 218 216 214 212 211 209 208 209
199 198 207 204 199 194 204 223 216 133 28 353 87 128 141 168 188 183 138 32 354 49 88 87 92 127 48 351 322 315 320 318 316 322 322 320 321 317 310 310 307 305 307 306 308 314 314 308 304 304 307 310 311 311 311 304 292 288 284 285 293 300 298 293 289 281 272 265 259 254 249 244 240 235 231 227 222 218 214 211 208 207 206 205 204 204
221 188 168 190 223 200 183 204 190 124 59 25 66 113 147 170 188 161 125 86 15 3 30 35 25 298 248 284 305 303 307 313 317 322 320 315 314 314 310 306 301 298 300 301 303 308 309 303 300 301 302 305 308 309 310 308 296 287 287 293 300 301 297 296 289 276 268 262 256 251 245 239 234 229 226 223 218 213 209 205 203 202 201 202 201 201
228 152 126 135 262 280 270 147 120 47 28 73 91 102 131 157 177 112 90 62 16 348 327 318 317 295 247 230 261 280 279 292 304 307 307 304 305 308 307 303 302 302 303 304 306 309 309 302 297 295 296 301 306 308 310 310 300 288 291 299 302 299 296 294 283 271 265 259 254 249 242 234 228 221 219 217 213 211 208 204 200 199 199 199 200 201
278 157 132 144 194 240 290 72 79 305 253 139 124 93 88 110 130 104 85 43 354 333 316 305 306 308 268 211 237 273 278 285 293 296 300 301 299 302 305 304 305 307 306 306 308 311 311 303 294 290 289 294 301 305 308 308 304 299 299 301 302 299 295 286 274 266 260 254 249 243 235 229 222 215 211 209 206 205 205 203 201 199 197 197 197 198
252 124 129 188 191 192 216 235 294 268 222 159 140 119 95 103 107 89 71 38 9 350 334 329 330 331 333 315 276 269 275 280 279 286 297 300 298 302 306 305 306 308 308 308 310 311 309 303 295 291 288 289 296 302 304 303 304 305 303 301 300 297 289 278 268 262 257 251 243 235 228 223 218 212 207 205 202 200 199 199 199 199 200 201 199 197
101 88 147 160 161 299 285 288 347 12 287 183 121 87 68 81 100 83 61 41 30 15 355 349 350 346 339 331 323 316 313 308 296 292 299 302 304 307 308 307 309 309 308 309 310 310 306 301 297 294 292 291 296 300 300 300 302 302 299 296 295 290 279 270 264 258 253 248 238 229 223 217 214 211 206 202 201 200 199 200 200 202 205 206 206 205
89 174 213 101 92 282 256 240 98 82 275 288 53 67 41 24 54 59 46 34 27 18 6 356 352 348 346 347 348 343 330 324 324 321 311 304 303 307 309 310 311 310 310 311 312 309 304 299 296 294 293 295 298 300 300 299 299 298 295 292 288 280 270 263 258 252 246 239 230 223 218 211 209 207 203 199 196 195 198 203 206 206 207 208 209 211
158 201 202 132 166 236 232 213 161 150 224 291 63 73 37 18 35 42 36 33 26 19 12 2 352 346 343 343 348 350 336 320 321 324 317 309 308 309 309 309 307 306 308 310 310 308 305 303 300 295 292 295 300 301 299 298 297 295 291 287 280 272 263 255 248 242 236 229 221 216 211 206 203 200 198 196 194 190 189 192 200 208 211 210 209 210